Weather History for Omaha, NE

Change the Weather History Date:

Saturday, January 5, 2013

  Actual Average Record
Temperature  
Mean Temperature 23 °F 23 °F  
Max Temperature 32 °F 33 °F 66 °F (2012)
Min Temperature 14 °F 14 °F -32 °F (1884)
Degree Days  
Heating Degree Days 42 42  
Month to date heating degree days 221 210  
Since 1 July heating degree days 2498 2689  
Cooling Degree Days 0 0  
Month to date cooling degree days 0 0  
Year to date cooling degree days 0 0  
Moisture  
Dew Point 18 °F    
Average Humidity 73    
Maximum Humidity 88    
Minimum Humidity 58    
Precipitation  
Precipitation 0.00 in 0.02 in 1.04 in (1932)
Month to date precipitation T 0.11  
Year to date precipitation T 0.11  
Snow  
Snow 0.00 in 0.20 in - ()
Month to date snowfall T 0.9  
Since 1 July snowfall 7.4 9.9  
Snow Depth 1.00 in    
Sea Level Pressure  
Sea Level Pressure 30.12 in    
Wind  
Wind Speed 11 mph (West)    
Max Wind Speed 30 mph    
Max Gust Speed 36 mph    
Visibility 9 miles    
Events      
T = Trace of Precipitation, MM = Missing Value Source: NWS Daily Summary

Daily Weather History Graph

Daily Weather History Graph

Search for Another Location

Airport:

Trip Planner

Search our weather history database for the weather conditions in past years. The results will help you decide how hot, cold, wet, or windy it might be!

Date:

Astronomy

Jan. 05, 2013 Rise Set
Actual Time 7:49 AM CST 5:09 PM CST
Civil Twilight 7:18 AM CST 5:40 PM CST
Nautical Twilight 6:44 AM CST 6:14 PM CST
Astronomical Twilight 6:10 AM CST 6:47 PM CST
Moon 12:55 AM CST (1/5) 12:01 PM CST (1/5)
Length of Visible Light 10h 21m
Length of Day
9h 19m
Last Quarter, 44% of the Moon is Illuminated
Jan 5
Last Quarter
Jan 11
New
Jan 18
First Quarter
Jan 26
Full
Feb 3
Last Quarter

Hourly Weather History & Observations

Time (CST) Temp. Windchill Dew Point Humidity Pressure Visibility Wind Dir Wind Speed Gust Speed Precip Events Conditions
12:52 AM 19.9 °F 8.6 °F 14.0 °F 78% 30.17 in 9.0 mi SSE 10.4 mph - N/A   Mostly Cloudy
1:52 AM 19.9 °F 10.1 °F 15.1 °F 81% 30.15 in 9.0 mi SSE 8.1 mph - N/A   Scattered Clouds
2:52 AM 18.0 °F 7.7 °F 14.0 °F 84% 30.15 in 8.0 mi SSE 8.1 mph - N/A   Scattered Clouds
3:52 AM 17.1 °F 5.8 °F 12.9 °F 84% 30.13 in 8.0 mi SE 9.2 mph - N/A   Scattered Clouds
4:52 AM 17.1 °F 8.7 °F 14.0 °F 88% 30.12 in 7.0 mi SE 5.8 mph - N/A   Partly Cloudy
5:52 AM 19.0 °F - 15.1 °F 85% 30.10 in 7.0 mi Calm Calm - N/A   Clear
6:52 AM 16.0 °F 2.3 °F 12.9 °F 88% 30.11 in 7.0 mi SSE 12.7 mph - N/A   Scattered Clouds
7:52 AM 19.0 °F 8.2 °F 15.1 °F 85% 30.11 in 8.0 mi SSE 9.2 mph - N/A   Scattered Clouds
8:52 AM 21.9 °F 12.5 °F 18.0 °F 85% 30.10 in 7.0 mi SSE 8.1 mph - N/A   Scattered Clouds
9:48 AM 24.8 °F - 19.4 °F 80% 30.08 in 8.0 mi Calm Calm - N/A   Mostly Cloudy
9:52 AM 24.1 °F - 19.9 °F 84% 30.12 in 8.0 mi Calm Calm - N/A   Mostly Cloudy
10:52 AM 30.0 °F 23.2 °F 23.0 °F 75% 30.09 in 10.0 mi SW 6.9 mph - N/A   Mostly Cloudy
11:32 AM 30.2 °F 20.2 °F 24.8 °F 80% 30.03 in 10.0 mi SW 12.7 mph 21.9 mph N/A   Mostly Cloudy
11:52 AM 32.0 °F 21.6 °F 25.0 °F 75% 30.06 in 10.0 mi SW 15.0 mph 19.6 mph N/A   Scattered Clouds
12:52 PM 32.0 °F 20.5 °F 23.0 °F 69% 30.05 in 10.0 mi West 18.4 mph - N/A   Scattered Clouds
1:52 PM 30.9 °F 24.3 °F 19.0 °F 61% 30.02 in 10.0 mi West 6.9 mph - N/A   Partly Cloudy
2:52 PM 30.0 °F 21.7 °F 17.1 °F 59% 30.06 in 10.0 mi WNW 9.2 mph - N/A   Clear
3:52 PM 30.9 °F 22.8 °F 19.0 °F 61% 30.07 in 10.0 mi West 9.2 mph - N/A   Clear
4:52 PM 30.0 °F 25.2 °F 19.0 °F 64% 30.08 in 10.0 mi WNW 4.6 mph - N/A   Clear
5:52 PM 28.0 °F 22.8 °F 19.0 °F 69% 30.10 in 10.0 mi West 4.6 mph - N/A   Clear
6:52 PM 28.9 °F 17.3 °F 19.9 °F 69% 30.14 in 10.0 mi NW 16.1 mph - N/A   Clear
7:52 PM 27.0 °F 13.9 °F 19.0 °F 72% 30.17 in 10.0 mi NNW 18.4 mph - N/A   Partly Cloudy
8:22 PM 26.6 °F 12.4 °F 19.4 °F 74% 30.14 in 10.0 mi NW 21.9 mph 33.4 mph N/A   Overcast
8:52 PM 26.1 °F 11.3 °F 17.1 °F 69% 30.19 in 10.0 mi NW 23.0 mph 35.7 mph N/A   Mostly Cloudy
9:33 PM 24.8 °F 10.0 °F 15.8 °F 69% 30.16 in 10.0 mi NW 21.9 mph 32.2 mph N/A   Mostly Cloudy
9:52 PM 24.1 °F 9.4 °F 16.0 °F 71% 30.21 in 9.0 mi NW 20.7 mph 28.8 mph N/A   Overcast
10:52 PM 21.0 °F 5.7 °F 14.0 °F 74% 30.25 in 10.0 mi NNW 19.6 mph 25.3 mph N/A   Overcast
11:52 PM 21.0 °F 6.2 °F 15.1 °F 78% 30.25 in 10.0 mi NNW 18.4 mph 27.6 mph N/A   Overcast